GW3496 Weather Reports


time (UTC)temp
C
wind
direction
speed
KPH
gust
KPH
rain 1hr
cm
rain 24hr
cm
rain mn
cm
humidity
%
barometer
mb
20260902033103 28 251 1.6 6.4 0.00 0.00 0.00 75 1014.0
20260902031547 29 279 4.8 11.3 0.00 0.00 0.00 74 1013.9
20260902030055 29 313 3.2 9.7 0.00 0.00 0.00 73 1013.7
20260902024552 30 265 3.2 8.0 0.00 0.00 0.00 71 1013.9
20260902023053 30 319 1.6 6.4 0.00 0.00 0.00 70 1013.7
20260902021551 30 314 3.2 8.0 0.00 0.00 0.00 69 1013.6
20260902020043 30 266 1.6 8.0 0.00 0.00 0.00 69 1013.6
20260902014553 30 255 6.4 12.9 0.00 0.00 0.00 70 1013.6
20260902013050 30 284 3.2 12.9 0.00 0.00 0.00 70 1013.5
20260902011549 30 228 6.4 11.3 0.00 0.00 0.00 70 1013.2
20260902010045 31 254 9.7 14.5 0.00 0.00 0.00 69 1012.6
20260902004555 31 282 4.8 12.9 0.00 0.00 0.00 67 1012.7
20260902003053 31 209 6.4 14.5 0.00 0.00 0.00 66 1012.4
20260902001550 32 194 8.0 14.5 0.00 0.00 0.00 65 1012.4
20260902000104 32 194 6.4 11.3 0.00 0.00 0.00 62 1012.4
20260901234543 32 193 6.4 14.5 0.00 0.00 0.00 61 1012.4
20260901233053 33 198 4.8 9.7 0.00 0.00 0.00 59 1012.4
20260901231551 33 233 1.6 11.3 0.00 0.00 0.00 58 1012.6
20260901230051 33 232 4.8 11.3 0.00 0.00 0.00 56 1012.6
20260901224548 34 207 8.0 12.9 0.00 0.00 0.00 54 1012.9
20260901223047 34 248 6.4 12.9 0.00 0.00 0.00 54 1013.1
20260901221556 34 243 6.4 12.9 0.00 0.00 0.00 54 1013.2
20260901220100 34 250 8.0 16.1 0.00 0.00 0.00 54 1013.3
20260901214550 34 142 12.9 20.9 0.00 0.00 0.00 55 1013.1
20260901213107 35 261 12.9 17.7 0.00 0.00 0.00 55 1013.2
20260901211543 35 176 9.7 16.1 0.00 0.00 0.00 55 1013.3
20260901204603 34 271 9.7 16.1 0.00 0.00 0.00 55 1013.5
20260901203056 34 263 12.9 19.3 0.00 0.00 0.00 55 1013.5
20260901201553 34 254 9.7 17.7 0.00 0.00 0.00 55 1013.8
20260901200057 35 281 9.7 19.3 0.00 0.00 0.00 54 1013.8
20260901194559 35 312 9.7 22.5 0.00 0.00 0.00 55 1014.0
20260901193056 34 308 4.8 16.1 0.00 0.00 0.00 56 1014.4
20260901191604 34 328 4.8 16.1 0.00 0.00 0.00 56 1014.5
20260901184600 33 292 11.3 19.3 0.00 0.00 0.00 57 1014.3
20260901183056 34 246 6.4 19.3 0.00 0.00 0.00 56 1014.7
20260901181607 34 90 8.0 22.5 0.00 0.00 0.00 57 1014.6
20260901180100 33 256 4.8 17.7 0.00 0.00 0.00 57 1014.9
20260901174604 33 301 12.9 22.5 0.00 0.00 0.00 57 1014.7
20260901173052 33 234 9.7 17.7 0.00 0.00 0.00 58 1014.8
20260901171614 33 273 4.8 20.9 0.00 0.00 0.00 57 1014.7
20260901170108 33 265 9.7 16.1 0.00 0.00 0.00 58 1014.7
20260901164619 33 309 6.4 14.5 0.00 0.00 0.00 58 1014.9
20260901163100 33 285 6.4 12.9 0.00 0.00 0.00 59 1015.0
20260901161604 33 291 3.2 12.9 0.00 0.00 0.00 59 1015.3
20260901160108 32 202 8.0 16.1 0.00 0.00 0.00 56 1015.4
20260901154606 32 13 4.8 12.9 0.00 0.00 0.00 55 1015.4
20260901153103 32 216 1.6 9.7 0.00 0.00 0.00 62 1015.8
20260901151602 31 306 0.0 6.4 0.00 0.00 0.00 67 1015.9
20260901150036 30 289 8.0 14.5 0.00 0.00 0.00 67 1015.8
20260901144535 30 250 6.4 14.5 0.00 0.00 0.00 69 1016.0
20260901143034 30 273 9.7 14.5 0.00 0.00 0.00 70 1016.2
20260901141539 29 269 4.8 12.9 0.00 0.00 0.00 72 1015.9
20260901140034 28 273 4.8 12.9 0.00 0.00 0.00 74 1015.7
20260901134534 27 252 1.6 6.4 0.00 0.00 0.00 78 1015.5
20260901133035 26 236 8.0 12.9 0.00 0.00 0.00 81 1015.8
20260901131545 26 252 1.6 11.3 0.00 0.00 0.00 82 1015.8
20260901130037 26 236 4.8 14.5 0.00 0.00 0.00 82 1015.8
20260901124541 26 246 6.4 14.5 0.00 0.00 0.00 82 1015.8
20260901123042 26 277 4.8 9.7 0.00 0.00 0.00 84 1015.7
20260901121541 25 265 0.0 0.0 0.00 0.00 0.00 86 1015.7
20260901120034 25 290 1.6 6.4 0.00 0.00 0.00 87 1015.4
20260901114552 25 231 0.0 0.0 0.00 0.00 0.00 90 1015.5
20260901113035 24 214 0.0 0.0 0.00 0.00 0.00 90 1015.4
20260901111542 23 245 0.0 0.0 0.00 0.00 0.00 90 1015.2
20260901110035 23 181 0.0 0.0 0.00 0.00 0.00 90 1014.9
20260901104534 23 214 0.0 0.0 0.00 0.00 0.00 90 1014.7
20260901103037 23 214 0.0 0.0 0.00 0.00 0.00 90 1014.7
20260901101538 23 186 0.0 1.6 0.00 0.00 0.00 90 1014.7
20260901100037 24 121 0.0 0.0 0.00 0.00 0.00 90 1014.7
20260901094534 24 121 0.0 0.0 0.00 0.00 0.00 90 1014.7
20260901093041 24 226 0.0 0.0 0.00 0.00 0.00 90 1014.7
20260901091543 24 13 0.0 0.0 0.00 0.00 0.00 89 1014.7
20260901090035 24 174 0.0 0.0 0.00 0.00 0.00 88 1014.7
20260901084534 25 174 0.0 0.0 0.00 0.00 0.00 87 1014.7
20260901083039 25 174 0.0 0.0 0.00 0.00 0.00 87 1015.0
20260901081542 25 174 0.0 0.0 0.00 0.00 0.00 87 1015.0
20260901080038 25 201 0.0 0.0 0.00 0.00 0.00 87 1015.0
20260901074550 25 257 0.0 0.0 0.00 0.00 0.00 86 1015.2
20260901073038 25 257 0.0 0.0 0.00 0.00 0.00 86 1015.4
20260901071537 25 257 0.0 0.0 0.00 0.00 0.00 86 1015.2
20260901070042 25 273 0.0 6.4 0.00 0.00 0.00 86 1015.4
20260901064541 25 226 0.0 6.4 0.00 0.00 0.00 85 1015.4
20260901063043 25 200 0.0 6.4 0.00 0.00 0.00 85 1015.5
20260901061543 25 175 0.0 0.0 0.00 0.00 0.00 86 1015.7
20260901060044 25 221 0.0 6.4 0.00 0.00 0.00 86 1015.7
20260901054542 25 239 3.2 4.8 0.00 0.00 0.00 86 1015.9
20260901053050 25 248 1.6 6.4 0.00 0.00 0.00 86 1016.0
20260901051553 25 277 0.0 0.0 0.00 0.00 0.00 85 1016.2
20260901050048 26 277 0.0 0.0 0.00 0.00 0.00 85 1016.2
20260901044543 26 309 1.6 4.8 0.00 0.00 0.00 83 1016.4
20260901043042 26 238 3.2 6.4 0.00 0.00 0.00 82 1016.4
20260901041543 26 246 0.0 0.0 0.00 0.00 0.00 81 1016.4
20260901040108 27 146 0.0 0.0 0.00 0.00 0.00 80 1016.5